Presure
166 152 147 164 161 134 133 176 136 182 186 113 137 163 174 155 186 133 159 201 203 169 225 189 161 175 186 150 189 205 188 183 175 178 170 173 133 131 189 156 207 196 204 209 211
186 137 146 119 177 191 177 168 127 153 132 118 159 117 194 140 162 181 167 179 184 142 178 129 172 178 192 181 233 169 193 200 197 213 193 197 206 210 215 184 204 196 192 210 207
124 181 145 124 148 180 185 156 131 161 117 169 194 145 175 149 174 150 123 188 162 145 193 160 171 166 180 179 166 158 196 180 160 160 158 168 213 172 215 164 202 192 195 182 211
132 129 173 196 162 124 187 207 185 178 127 146 175 177 161 191 166 163 138 152 192 145 156 155 159 163 197 177 172 172 174 151 146 173 195 188 196 220 204 205 205 197 198 169 167
107 126 144 149 143 145 163 145 127 150 170 173 142 123 155 151 133 188 151 201 143 152 147 178 215 150 247 176 194 261 313 252 200 155 168 192 158 189 174 193 161 181 143 176 202
127 122 121 145 171 129 139 123 138 151 138 164 174 160 152 160 178 142 162 172 175 172 128 174 203 206 237 208 171 283 263 256 188 200 194 189 181 183 219 173 180 190 180 207 214
166 163 176 159 188 129 153 151 187 151 122 176 135 156 180 186 132 189 150 156 185 192 141 157 161 188 166 270 162 195 282 249 271 256 227 200 204 225 184 194 178 217 214 212 191
165 135 172 172 143 166 161 127 198 165 171 178 165 147 150 143 184 176 184 169 191 216 317 289 159 233 148 302 298 273 284 282 271 222 174 191 195 205 200 208 205 208 175 204 223
143 97 155 140 152 133 144 171 154 164 142 126 175 172 171 127 179 189 184 201 211 191 299 223 249 311 308 297 290 284 281 269 262 254 198 199 202 191 188 181 206 211 209 206 202
125 127 160 138 133 169 155 191 199 183 174 179 182 192 177 131 156 171 190 214 217 232 275 251 290 315 296 287 296 291 282 274 264 257 218 192 204 167 225 208 190 217 192 190 226
126 114 161 126 188 125 171 169 197 186 170 129 202 199 130 200 198 219 184 214 229 286 264 242 311 313 293 290 287 284 275 258 253 220 234 166 194 217 190 188 221 226 237 221 230
136 193 146 182 169 149 196 180 184 203 191 201 189 209 198 180 213 183 198 218 303 282 258 319 300 287 279 274 271 267 249 248 238 234 148 205 203 163 183 222 159 180 220 229 247
190 170 185 188 179 166 179 171 177 202 202 169 202 206 208 181 218 211 210 254 294 274 196 305 293 275 272 265 266 249 257 242 228 236 210 160 165 199 224 221 205 156 231 245 246
204 196 195 190 194 185 193 194 204 199 191 181 206 209 200 183 219 209 224 307 239 155 317 300 281 267 255 257 255 249 241 221 195 226 214 157 179 175 218 227 229 205 221 243 257
164 188 213 177 199 200 200 196 178 210 206 213 185 210 214 219 224 216 226 298 266 251 308 289 265 255 265 251 249 238 229 228 232 228 230 221 164 221 212 221 192 150 240 256 289
209 186 198 198 178 201 201 195 177 176 215 218 225 265 248 200 219 213 229 288 270 264 303 288 258 249 241 246 239 230 229 229 172 180 226 201 224 205 213 234 193 244 227 284 257
202 175 190 190 211 205 207 211 220 214 227 239 285 310 236 244 217 270 289 306 273 301 297 283 255 247 253 242 235 237 234 230 228 194 197 230 228 228 234 240 244 258 274 261 295
174 208 221 212 212 203 222 210 205 226 296 300 313 303 229 308 303 236 286 277 268 295 291 263 258 263 239 235 237 238 235 235 234 235 234 226 207 233 240 252 234 271 262 275 282
212 213 210 216 228 218 235 270 217 317 320 315 304 253 294 306 288 290 283 311 296 293 286 273 259 259 244 241 222 143 233 235 233 231 229 195 236 240 250 251 262 263 266 288 370
221 318 322 229 369 295 370 293 333 219 338 321 294 309 316 290 283 338 308 300 292 285 283 273 260 249 171 236 230 225 225 224 232 235 233 233 241 243 249 262 263 258 287 289 352
238 355 253 362 359 346 221 350 346 345 343 328 316 344 319 280 325 288 297 293 286 281 275 275 261 252 243 237 235 231 231 235 234 231 234 242 239 247 260 260 253 271 279 346 354
242 265 246 344 245 341 342 332 325 320 320 237 316 305 288 298 303 304 297 288 282 274 269 266 265 258 245 244 235 227 226 232 233 240 237 244 246 251 260 249 254 279 276 356 350
260 350 260 341 344 323 338 334 317 280 319 319 328 298 281 307 298 225 292 279 276 269 268 263 261 260 257 249 245 241 231 242 170 240 247 240 250 259 239 246 276 268 294 348 336
344 343 310 294 325 335 334 250 318 320 315 298 262 305 307 306 280 289 281 274 268 263 272 270 263 255 249 250 243 240 237 237 243 247 162 246 252 244 246 266 269 267 301 347 334
318 329 319 324 325 296 321 315 316 310 307 251 341 304 309 299 292 283 273 268 266 268 264 270 264 255 250 245 242 156 243 245 245 236 223 252 247 246 250 266 265 273 333 334 332
322 325 319 319 317 314 313 309 311 311 313 344 329 309 300 287 280 278 272 268 265 267 257 270 257 254 250 222 246 248 248 242 243 245 253 245 237 242 266 258 264 271 338 325 346
328 317 326 301 311 308 305 302 300 308 310 246 317 310 293 283 272 277 268 263 258 262 250 263 262 259 255 246 252 250 243 248 252 253 244 235 243 254 263 255 261 269 344 328 346
Wind_Speed
49 38 37 50 55 32 37 49 39 51 49 31 39 48 63 47 54 43 47 54 59 63 60 59 61 67 70 53 64 71 73 66 59 59 57 60 47 42 66 49 72 71 72 72 74
47 34 44 29 39 46 42 40 39 51 43 37 57 37 44 49 62 48 51 54 63 51 63 41 64 71 73 72 65 56 74 75 71 72 70 71 70 68 69 61 70 68 65 72 73
30 48 52 30 51 47 49 55 41 52 34 53 49 49 49 53 45 60 41 52 49 57 63 65 79 75 72 82 55 46 77 65 51 49 52 56 69 54 70 59 71 65 65 60 76
40 35 49 53 49 35 52 50 51 48 44 61 50 52 63 58 66 52 43 70 58 51 63 67 69 71 73 81 51 61 55 49 51 53 68 62 66 70 70 71 70 69 68 58 56
32 41 42 45 42 40 49 44 42 53 55 54 58 39 52 52 40 62 56 72 44 61 53 72 71 40 64 68 66 48 57 62 74 50 49 67 51 61 55 64 53 55 43 60 75
51 37 49 39 55 43 58 40 57 55 46 61 60 60 67 53 66 52 65 67 70 73 34 71 68 66 67 74 75 50 60 58 64 70 72 68 63 62 72 53 54 62 59 76 81
59 60 55 59 57 46 61 57 69 63 44 66 45 57 66 74 49 73 73 69 68 72 40 46 81 77 61 57 46 63 48 56 59 62 62 76 77 71 58 63 53 76 76 79 67
58 59 59 60 63 66 66 59 70 61 67 70 73 62 66 69 72 65 67 74 74 80 61 55 64 56 43 41 38 43 43 47 53 54 56 65 68 71 66 71 70 72 56 73 85
64 33 62 51 59 62 64 69 67 70 60 50 70 70 72 45 64 75 68 77 77 79 57 64 56 42 37 36 36 37 39 43 50 55 56 67 65 56 55 52 69 73 73 72 72
49 52 62 61 60 73 63 74 75 75 78 73 77 74 75 54 67 65 72 78 78 82 57 57 46 35 35 33 33 32 34 34 39 48 64 54 66 43 68 64 59 73 60 59 81
50 43 76 52 69 54 77 77 72 75 74 57 72 72 46 73 75 79 64 79 80 58 57 56 34 29 28 28 27 26 27 31 35 58 56 39 52 68 56 52 73 79 85 74 82
57 79 61 69 78 67 79 82 77 77 75 76 75 76 73 68 78 67 74 79 58 55 54 31 29 26 27 24 23 22 31 33 44 48 31 63 61 34 45 71 31 50 72 78 93
82 80 83 74 85 80 78 75 77 82 77 74 77 78 76 71 81 77 78 79 55 49 51 27 23 25 23 21 21 28 27 33 45 44 60 35 38 55 67 69 58 31 75 82 83
95 84 83 74 86 77 78 79 88 87 82 81 84 86 74 70 78 71 70 53 53 44 27 25 22 21 22 21 21 24 28 36 39 49 49 30 40 43 65 68 70 55 68 78 84
87 79 95 86 88 89 94 88 81 102 99 101 72 83 80 78 74 66 69 49 53 47 26 24 26 27 25 23 20 28 33 37 44 50 50 55 32 60 57 63 46 22 75 83 86
103 92 96 91 87 88 89 87 77 74 105 103 97 93 90 63 67 64 65 49 46 40 26 25 28 27 26 24 28 34 36 41 31 30 51 44 57 47 55 64 42 74 58 80 74
94 88 94 96 101 96 96 104 107 98 109 111 68 63 71 71 62 54 42 37 38 29 24 24 27 28 27 27 32 37 39 43 45 36 38 55 56 56 59 63 67 72 74 70 77
95 104 108 101 103 93 111 98 88 107 72 71 62 67 65 53 41 58 38 40 35 29 22 27 26 29 28 29 31 33 37 40 45 49 51 52 42 58 59 61 53 70 62 72 70
110 107 99 98 109 95 105 88 86 59 62 65 68 63 61 50 40 39 37 28 30 27 22 28 25 27 29 30 29 22 35 40 44 47 49 35 57 57 55 57 63 60 63 63 27
104 81 75 98 53 73 48 70 53 73 58 62 64 60 54 44 42 37 28 28 29 27 23 27 27 28 25 31 31 33 34 34 40 42 44 47 50 48 54 59 56 56 59 56 20
103 55 87 50 50 50 71 47 46 47 47 53 56 48 48 42 32 33 27 28 28 26 24 25 29 30 31 31 33 34 36 36 36 37 40 45 40 47 52 49 51 59 54 38 18
84 73 77 50 64 48 44 44 46 47 46 46 45 43 41 38 27 26 26 28 27 26 24 24 27 30 31 34 32 31 30 33 34 37 35 40 42 44 44 45 48 51 48 23 13
73 45 66 47 46 45 41 40 42 44 39 35 32 32 35 28 25 32 26 27 25 26 26 26 25 27 29 31 33 33 31 32 11 33 39 33 40 39 35 41 46 43 52 5 12
44 42 50 51 42 38 36 45 35 35 34 35 35 32 23 29 27 28 27 29 27 27 25 25 25 25 25 24 25 26 26 27 30 32 11 33 33 31 35 40 40 38 52 9 7
49 42 39 37 38 40 34 34 33 34 32 35 33 22 28 31 28 28 29 29 28 25 23 23 24 25 25 24 25 22 26 27 25 24 24 28 26 30 34 33 35 37 39 11 14
43 41 37 33 35 34 32 32 30 29 28 29 34 27 33 31 27 27 27 28 29 23 22 22 22 23 24 24 24 24 24 23 23 26 24 21 23 27 29 30 32 35 34 9 25
40 41 38 32 32 32 34 30 30 27 26 34 31 33 35 30 26 28 27 29 27 23 22 20 22 23 24 24 23 23 22 24 24 20 17 19 23 26 23 26 28 33 31 10 26
Wind_Direction
292 297 299 285 283 301 286 279 285 289 279 281 290 294 275 291 285 291 288 289 281 278 302 270 279 281 272 276 270 275 275 274 270 271 268 271 266 265 274 268 274 277 278 279 279
293 295 299 279 299 300 297 291 293 287 285 280 290 286 295 283 280 293 285 286 271 281 274 288 293 276 266 280 279 282 274 271 275 271 278 279 276 274 269 273 275 274 279 278 277
291 296 295 300 295 296 291 288 285 288 287 289 294 287 283 297 298 295 284 279 281 301 294 284 277 280 272 276 291 286 271 272 271 271 269 271 271 274 269 273 275 278 279 274 278
309 308 292 300 289 299 296 293 291 290 280 293 296 287 286 304 278 292 291 292 286 292 293 294 291 289 275 280 278 295 293 269 269 279 277 280 279 263 274 275 273 276 282 274 277
276 307 287 300 300 289 292 296 296 292 284 292 295 284 298 279 296 298 277 300 285 291 304 265 301 304 288 273 286 274 261 263 271 264 271 280 268 281 270 270 272 279 262 279 283
303 298 292 293 288 295 297 295 299 299 286 286 289 291 284 291 293 301 283 295 273 274 277 286 280 296 283 280 292 271 271 262 269 268 273 273 272 276 266 275 280 275 280 281 279
293 297 301 291 294 298 290 280 298 279 282 295 293 292 296 296 298 295 287 297 284 296 289 304 290 285 301 281 292 289 270 272 254 247 250 268 269 259 272 281 276 274 278 281 283
294 297 295 297 289 298 287 298 301 295 294 293 293 296 296 291 292 295 295 280 297 304 301 297 287 292 290 279 277 269 265 260 253 247 264 273 272 272 280 276 281 282 285 282 283
285 287 289 288 295 290 291 295 292 291 287 293 291 292 291 299 299 292 296 298 302 298 302 292 294 287 280 277 272 268 262 255 248 247 259 269 266 277 281 281 282 283 281 283 288
283 289 288 292 286 292 289 295 298 291 292 290 292 289 291 297 300 295 298 300 304 309 299 298 293 281 275 272 262 259 254 253 250 250 251 270 270 281 268 277 283 282 289 292 290
287 277 284 288 293 287 287 288 297 291 291 290 294 289 295 295 292 304 300 302 306 299 297 297 287 276 272 272 265 255 251 246 243 245 247 274 277 266 282 285 279 280 281 291 293
283 293 280 285 289 291 298 286 289 296 287 295 290 299 291 292 302 297 301 304 299 299 296 288 280 274 277 275 262 245 243 243 239 244 277 266 273 287 287 277 299 296 289 293 292
289 280 288 289 289 286 294 283 294 292 295 291 293 297 298 293 303 298 301 309 298 296 300 282 267 271 272 261 250 240 239 244 247 251 260 280 282 274 272 278 287 289 293 295 299
287 291 293 289 298 278 293 293 299 290 286 285 295 297 292 295 300 296 303 296 298 305 283 268 258 263 264 249 243 241 241 249 258 250 257 287 283 283 278 281 288 295 296 302 307
276 290 290 278 294 294 295 294 284 294 294 294 287 290 295 297 297 295 303 290 292 291 280 260 257 267 256 252 247 237 241 246 248 252 256 265 296 275 281 289 299 276 303 306 314
290 286 289 292 278 291 291 290 289 287 293 296 295 293 293 291 295 293 301 288 287 288 277 248 249 259 262 249 243 242 243 246 257 267 258 271 271 279 288 291 295 302 304 314 313
288 284 280 284 288 290 289 292 291 290 294 294 282 281 295 295 292 291 288 286 284 276 264 245 250 250 253 244 246 246 246 250 255 261 274 271 278 285 291 299 302 305 314 317 316
280 288 287 288 289 287 288 289 286 290 282 280 272 277 293 288 290 295 286 282 282 269 256 253 240 234 248 250 250 253 257 258 261 265 270 277 283 290 298 302 305 313 318 320 322
287 285 282 287 287 286 288 287 286 269 266 264 272 280 282 287 285 284 285 272 269 263 258 243 236 233 237 242 250 262 258 261 265 271 277 278 287 296 301 306 311 317 322 324 344
284 288 283 284 280 282 280 281 270 286 253 263 272 272 275 279 283 274 269 267 264 260 256 241 235 236 243 244 249 256 261 268 271 275 281 288 296 300 306 314 317 321 326 330 342
282 285 284 280 279 275 281 275 272 269 261 260 265 264 269 277 254 273 265 259 257 255 250 241 234 234 236 243 246 255 261 267 276 284 290 294 299 303 311 315 320 323 329 346 1
281 283 283 279 283 276 275 272 269 268 265 273 261 265 267 263 256 248 248 252 250 251 245 242 239 235 238 240 249 258 269 275 283 287 291 295 300 308 314 321 322 328 331 347 28
281 278 282 276 275 276 274 271 266 267 264 261 256 255 259 237 237 273 238 245 244 249 244 239 239 239 237 241 248 256 267 274 248 287 290 296 304 309 319 322 325 330 349 28 49
280 276 276 278 271 273 270 267 265 262 258 257 256 241 237 217 239 225 226 239 242 247 245 238 233 236 240 245 250 258 265 274 280 285 261 299 304 312 320 325 326 336 355 58 79
277 273 271 270 273 270 265 262 257 255 252 252 220 229 212 211 216 216 228 239 242 238 240 233 231 235 241 245 251 236 265 272 280 287 288 301 309 316 323 326 336 346 360 71 139
270 270 266 266 265 263 261 257 255 250 243 229 213 212 205 215 217 215 223 232 239 236 236 228 230 237 244 253 254 261 267 274 283 284 293 303 313 321 329 324 344 353 3 80 151
267 267 266 257 257 255 254 250 248 244 235 240 206 203 204 217 215 211 218 229 235 229 232 224 224 230 235 243 248 254 265 269 276 282 292 303 312 322 330 330 348 357 5 106 156